CAPE
1254 1254 1158 945 584 372 280 107 11 0 0 0 0 0 0 0 0 0 0 0 0 0 0 0 0 0 0 0 0 0 0 0 0 0 0 0 0 0 0 0 0 0
1314 1280 1008 974 664 390 345 294 30 0 1 1 0 4 0 0 10 0 0 0 0 0 0 0 0 0 0 0 0 0 0 0 0 0 0 0 0 0 0 0 0 0
1687 1642 1341 1128 836 730 576 305 90 1 8 23 39 19 6 26 46 43 0 1 1 15 12 0 0 0 0 0 0 0 0 0 0 0 0 0 0 0 0 0 0 0
1340 1434 1266 1134 999 924 737 358 159 21 73 65 53 58 92 81 91 103 40 6 7 22 27 10 1 0 0 0 0 0 0 0 0 0 0 0 0 0 0 0 0 0
1350 1395 1337 1190 954 764 604 404 213 72 38 25 86 85 26 52 44 22 10 31 13 16 35 32 12 6 4 0 0 0 0 0 0 0 0 0 0 0 0 0 0 0
1398 1246 1214 1212 1085 867 582 375 185 59 17 55 114 45 57 61 18 1 0 20 6 4 23 23 37 36 41 54 48 22 6 0 0 0 0 0 0 0 0 0 0 0
1155 1125 1151 1078 998 866 598 418 206 67 75 66 40 64 90 61 48 8 0 22 24 11 20 75 51 61 71 77 107 109 94 13 0 0 0 0 0 0 0 0 0 0
1242 1320 1201 1093 1064 950 771 584 338 238 156 60 97 123 91 42 26 46 27 48 56 99 134 133 156 130 143 166 111 147 115 117 121 40 19 2 0 0 0 0 0 0
1096 1082 1002 1058 1058 959 947 691 442 418 434 263 91 194 67 38 25 85 114 123 215 238 220 245 236 264 300 291 275 275 266 258 228 173 157 147 81 38 3 0 0 0
961 1050 1157 1144 1148 972 995 780 520 479 311 200 170 178 106 138 146 128 217 339 337 329 372 395 385 470 448 439 437 426 434 457 396 374 319 256 176 121 24 9 1 0
1047 1029 1063 1153 1187 1036 1107 992 934 827 483 304 314 305 219 329 391 395 474 460 580 498 490 588 602 620 594 579 654 620 523 518 476 458 495 431 359 235 70 105 66 50
1281 1215 1187 1242 1211 1178 1238 1079 1002 836 731 553 565 438 530 578 551 613 551 530 516 377 532 672 618 590 546 581 606 711 650 653 648 651 626 561 556 483 364 308 262 195
1287 1226 1130 1153 1225 1255 1356 1085 1068 1075 1010 937 778 650 790 759 737 850 792 612 566 640 736 768 765 640 720 784 790 794 794 814 882 762 725 739 693 619 558 490 428 380
1107 1003 1101 1262 1242 1280 1381 1261 1196 1227 956 935 802 824 847 740 876 976 1067 810 1050 1017 1027 954 951 908 973 1041 930 1077 1046 1010 1034 994 920 852 777 595 579 562 520 458
1167 1049 973 1047 1140 1137 1178 1255 1178 1070 1097 926 897 996 1045 1031 1075 1131 1152 923 1052 1176 1056 1028 955 1103 1356 1207 1291 1067 1056 1169 1074 1062 1044 1076 1110 1056 944 774 680 653
1020 1061 1054 1018 927 1085 1156 1251 1218 1330 1204 1072 1100 1096 1007 1072 1093 1135 1016 1060 1108 1156 1332 1354 1305 1303 504 0 11 737 1285 1092 1176 1203 1190 1245 1214 1227 1136 1024 933 887
866 917 953 902 650 821 986 1042 968 857 778 696 737 732 839 1213 1351 1161 1094 1124 1226 1450 1355 1184 927 462 359 331 396 465 755 1283 1408 1410 1270 1177 1137 1168 1126 1126 1046 855
942 900 933 1003 1049 1015 999 959 776 410 359 411 567 596 704 794 1015 1082 1354 1370 1291 1261 1327 1208 721 420 503 648 519 482 425 768 834 707 658 558 515 414 356 419 446 562
928 1007 916 725 767 676 737 764 196 748 533 689 684 760 942 968 1222 1241 1121 1368 1503 1371 1161 936 445 540 592 633 525 310 379 667 539 537 441 442 434 335 351 331 428 280
822 989 1110 875 748 675 626 655 794 842 1000 953 874 827 822 908 793 968 763 646 497 442 570 703 688 705 757 621 472 400 279 534 660 573 389 351 279 366 370 378 402 369
347 382 421 357 426 602 694 677 634 819 771 774 732 501 404 189 267 218 271 156 127 77 144 532 281 579 666 637 490 319 286 329 566 437 299 250 171 108 86 147 188 279
93 59 73 147 193 220 277 321 451 240 194 141 82 49 68 169 146 70 117 164 230 85 36 44 22 131 276 332 448 293 217 625 246 165 128 73 22 8 6 13 24 48
0 1 19 46 42 28 34 118 170 169 106 40 31 12 11 6 39 74 27 11 34 38 26 26 38 0 0 0 0 0 0 162 122 60 66 41 13 1 0 0 0 0
0 0 0 0 6 1 36 55 22 19 27 14 7 8 6 12 11 7 12 16 9 4 80 40 50 0 0 0 0 0 0 192 72 44 40 6 0 0 0 0 0 0
0 0 0 0 0 17 49 38 30 18 20 22 10 6 7 3 0 0 6 4 21 80 1 394 65 0 0 0 0 0 4 148 30 56 19 3 0 0 0 0 0 0
0 0 0 0 0 63 75 28 32 20 46 28 22 0 5 0 0 0 6 0 16 36 65 181 140 34 0 0 0 0 0 14 30 12 2 2 0 0 0 0 0 0
Wind_Speed
17 19 20 20 20 20 20 22 nan nan nan nan nan nan nan nan nan nan nan nan nan nan nan nan nan nan nan nan nan nan nan nan nan nan nan nan nan nan nan nan nan nan
16 17 19 20 21 21 21 23 nan nan nan nan nan nan nan nan nan nan nan nan nan nan nan nan nan nan nan nan nan nan nan nan nan nan nan nan nan nan nan nan nan nan
17 17 19 20 22 24 25 25 nan nan nan nan nan nan nan nan nan nan nan nan nan nan nan nan nan nan nan nan nan nan nan nan nan nan nan nan nan nan nan nan nan nan
16 16 18 21 23 25 26 27 26 nan nan nan nan nan nan nan nan 18 nan nan nan nan nan nan nan nan nan nan nan nan nan nan nan nan nan nan nan nan nan nan nan nan
16 16 18 20 22 23 23 24 24 nan nan nan nan nan nan nan nan nan nan nan nan nan nan nan nan nan nan nan nan nan nan nan nan nan nan nan nan nan nan nan nan nan
18 17 18 20 22 22 21 23 24 nan nan nan 27 nan nan nan nan nan nan nan nan nan nan nan nan nan nan nan nan nan nan nan nan nan nan nan nan nan nan nan nan nan
19 19 21 22 23 24 23 24 25 nan nan nan nan nan nan nan nan nan nan nan nan nan nan nan nan nan nan nan 20 20 nan nan nan nan nan nan nan nan nan nan nan nan
18 20 22 23 23 24 23 22 22 22 23 nan nan 24 nan nan nan nan nan nan nan nan 22 24 23 21 19 19 20 21 20 18 18 nan nan nan nan nan nan nan nan nan
19 21 23 24 23 22 21 20 20 21 22 23 nan 23 nan nan nan nan 17 17 18 19 21 22 20 19 18 18 19 19 18 18 16 17 17 17 nan nan nan nan nan nan
21 24 25 24 23 21 20 20 19 20 21 22 22 23 22 19 19 18 18 17 17 17 19 21 20 19 18 17 18 18 18 19 18 19 19 19 19 18 nan nan nan nan
24 25 24 22 21 21 20 20 19 20 22 22 22 22 21 20 20 20 20 19 18 16 18 20 21 21 21 19 18 17 18 20 20 21 21 21 21 21 nan 20 nan nan
25 24 22 20 20 20 20 21 19 19 20 20 21 21 22 22 22 22 20 19 18 17 19 21 22 23 20 19 19 20 19 20 20 21 20 20 21 20 21 22 22 21
22 21 21 20 21 22 22 22 21 19 20 20 20 20 22 23 22 20 19 18 19 20 20 21 23 22 22 22 22 21 21 22 22 22 21 20 20 20 20 20 20 21
22 21 22 22 24 24 24 24 23 22 22 22 21 20 21 21 21 20 22 20 21 21 22 23 23 22 23 24 23 23 23 23 23 23 22 22 22 21 22 21 21 21
25 25 25 26 27 27 27 27 26 25 25 25 23 21 22 22 22 22 22 22 23 22 22 22 22 23 24 24 23 23 23 23 24 24 24 24 25 25 26 25 24 24
28 28 29 30 30 31 31 30 30 29 29 29 27 26 25 23 21 21 22 22 22 22 23 24 25 27 32 nan nan 25 25 26 27 26 26 28 28 28 29 28 27 27
29 29 30 32 33 35 36 35 37 37 34 32 33 29 27 25 23 22 24 25 25 26 27 27 30 34 36 35 32 29 27 30 30 31 31 31 31 31 31 31 31 31
32 32 31 32 33 37 39 41 41 37 34 31 30 29 28 27 24 25 27 29 30 30 31 33 36 37 37 37 36 33 28 31 36 36 36 36 36 35 35 35 35 35
34 34 34 33 33 35 37 39 38 36 35 34 34 32 34 31 31 31 32 34 34 36 37 38 39 39 36 38 38 36 33 31 39 40 39 39 38 38 37 37 37 38
39 38 38 37 36 36 37 39 40 40 40 40 38 37 36 36 36 36 37 37 38 40 41 43 44 43 40 41 41 40 37 34 42 41 42 42 42 41 40 40 39 39
44 44 44 43 42 42 42 43 43 45 43 43 43 43 41 38 39 41 42 42 43 nan 45 47 47 45 43 43 42 40 38 34 42 42 43 44 44 44 nan 44 43 43
nan nan nan 46 46 46 46 47 48 48 49 48 nan nan nan 47 48 nan 49 49 48 nan nan nan nan 48 47 45 43 40 38 39 43 43 44 nan nan nan nan nan nan nan
nan nan nan nan nan nan nan 49 50 50 50 nan nan nan nan nan nan nan nan nan nan nan nan nan nan nan nan nan nan nan nan 42 45 nan nan nan nan nan nan nan nan nan
nan nan nan nan nan nan nan nan nan nan nan nan nan nan nan nan nan nan nan nan nan nan nan nan nan nan nan nan nan nan nan 43 nan nan nan nan nan nan nan nan nan nan
nan nan nan nan nan nan nan nan nan nan nan nan nan nan nan nan nan nan nan nan nan nan nan 44 nan nan nan nan nan nan nan 40 nan nan nan nan nan nan nan nan nan nan
nan nan nan nan nan nan nan nan nan nan nan nan nan nan nan nan nan nan nan nan nan nan nan 45 48 nan nan nan nan nan nan nan nan nan nan nan nan nan nan nan nan nan
Wind_Direction
244 251 255 257 257 257 259 258 nan nan nan nan nan nan nan nan nan nan nan nan nan nan nan nan nan nan nan nan nan nan nan nan nan nan nan nan nan nan nan nan nan nan
236 244 245 250 254 258 260 260 nan nan nan nan nan nan nan nan nan nan nan nan nan nan nan nan nan nan nan nan nan nan nan nan nan nan nan nan nan nan nan nan nan nan
232 239 247 251 255 262 264 263 nan nan nan nan nan nan nan nan nan nan nan nan nan nan nan nan nan nan nan nan nan nan nan nan nan nan nan nan nan nan nan nan nan nan
237 239 247 251 256 261 261 262 260 nan nan nan nan nan nan nan nan 279 nan nan nan nan nan nan nan nan nan nan nan nan nan nan nan nan nan nan nan nan nan nan nan nan
242 243 248 251 255 259 258 259 258 nan nan nan nan nan nan nan nan nan nan nan nan nan nan nan nan nan nan nan nan nan nan nan nan nan nan nan nan nan nan nan nan nan
240 240 245 250 256 257 255 258 260 nan nan nan 272 nan nan nan nan nan nan nan nan nan nan nan nan nan nan nan nan nan nan nan nan nan nan nan nan nan nan nan nan nan
241 240 245 248 255 258 255 257 260 nan nan nan nan nan nan nan nan nan nan nan nan nan nan nan nan nan nan nan 268 267 nan nan nan nan nan nan nan nan nan nan nan nan
237 238 245 250 254 256 255 256 259 262 264 nan nan 269 nan nan nan nan nan nan nan nan 278 273 273 274 278 278 277 276 271 268 269 nan nan nan nan nan nan nan nan nan
238 238 242 247 249 249 252 254 258 261 263 266 nan 267 nan nan nan nan 288 290 287 282 274 267 268 276 281 284 284 284 280 275 272 272 272 272 nan nan nan nan nan nan
238 236 240 242 246 245 252 255 259 260 263 264 266 268 274 278 283 285 284 283 283 281 272 261 262 270 279 283 286 284 280 280 280 280 279 277 272 267 nan nan nan nan
238 236 238 241 244 245 255 260 262 261 262 266 266 270 274 274 275 276 278 280 276 276 268 260 261 269 275 278 276 277 276 277 279 279 278 277 277 277 nan 275 nan nan
238 238 241 245 248 251 259 263 263 265 266 266 269 271 269 268 268 269 272 277 276 270 262 259 262 266 271 276 280 281 279 276 274 275 276 275 277 278 278 281 282 284
240 242 244 247 250 253 256 260 262 262 264 265 264 263 262 260 260 263 267 271 274 268 263 261 263 267 270 271 272 276 276 274 271 271 271 270 271 273 273 275 278 281
243 247 249 250 252 254 256 259 260 258 256 254 253 253 253 255 256 260 263 264 265 265 261 261 264 268 270 272 273 273 272 271 268 266 266 269 270 272 275 276 276 275
246 247 248 250 251 253 254 256 258 256 251 248 247 247 245 248 252 258 260 262 260 258 259 258 259 262 263 263 268 270 268 268 266 265 266 267 268 269 271 272 272 272
252 252 252 252 253 253 254 254 254 252 248 244 243 246 250 250 253 255 255 255 253 254 255 257 259 259 254 nan nan 254 264 263 264 265 266 265 265 266 268 269 269 269
255 257 259 259 255 253 252 253 248 243 237 235 238 237 242 251 253 254 251 247 247 249 255 260 261 259 256 257 257 252 255 266 266 267 267 268 268 269 269 269 271 272
259 259 261 260 259 257 254 251 251 250 252 255 253 257 260 253 250 248 247 247 247 251 255 258 258 255 254 257 258 259 256 259 265 264 265 266 266 267 267 268 269 270
261 261 260 261 260 258 255 253 252 250 250 253 258 259 255 251 249 250 250 250 252 255 257 258 257 254 256 259 261 261 259 256 261 262 264 264 264 264 263 264 265 267
258 258 258 258 257 257 257 257 256 252 251 254 260 258 253 253 257 255 253 253 255 259 260 259 258 254 252 257 258 258 259 256 260 262 263 264 264 265 266 265 266 266
257 256 255 254 254 253 254 256 257 258 257 258 260 259 259 261 262 258 255 257 260 nan 260 259 258 255 255 257 257 258 259 257 262 265 265 266 266 266 nan 267 268 269
nan nan nan 253 253 253 254 256 257 259 260 260 nan nan nan 258 259 nan 262 263 263 nan nan nan nan 255 257 259 258 260 260 260 263 264 265 nan nan nan nan nan nan nan
nan nan nan nan nan nan nan 257 257 259 260 nan nan nan nan nan nan nan nan nan nan nan nan nan nan nan nan nan nan nan nan 263 265 nan nan nan nan nan nan nan nan nan
nan nan nan nan nan nan nan nan nan nan nan nan nan nan nan nan nan nan nan nan nan nan nan nan nan nan nan nan nan nan nan 265 nan nan nan nan nan nan nan nan nan nan
nan nan nan nan nan nan nan nan nan nan nan nan nan nan nan nan nan nan nan nan nan nan nan 260 nan nan nan nan nan nan nan 267 nan nan nan nan nan nan nan nan nan nan
nan nan nan nan nan nan nan nan nan nan nan nan nan nan nan nan nan nan nan nan nan nan nan 263 265 nan nan nan nan nan nan nan nan nan nan nan nan nan nan nan nan nan